Simultaneous Nadir Overpasses (SNOs) Predictions

Prediction of SNOs between METOP-B and TERRA Satellite Orbit:

Table of predicted SNOs for the next 14.0 days since TLE Epoch: 2/1/2020
Index Date (METOP-B) Time (METOP-B) Lat,Lon (METOP-B) SZA (METOP-B ) Date (TERRA) Time (TERRA) Lat,Lon (TERRA) SZA (TERRA ) Distance(km) Time Diff (sec)
1 02/02/2020 05:20:14 81.29, 146.88 100.53 02/02/2020 05:20:35 81.30, 146.90 100.55 0.71 21
2 02/02/2020 06:10:55 -81.29, -45.74 79.48 02/02/2020 06:10:02 -81.29, -45.60 79.49 2.36 53
3 02/05/2020 00:54:37 81.29,-146.49 99.73 02/05/2020 00:54:54 81.30,-146.67 99.72 3.05 17
4 02/05/2020 01:45:18 -81.30, 20.93 80.28 02/05/2020 01:44:21 -81.29, 20.87 80.31 0.99 57
5 02/07/2020 20:29:01 81.29, -80.26 98.84 02/07/2020 20:29:13 81.30, -80.26 98.85 0.62 12
6 02/07/2020 21:19:42 -81.29, 87.19 81.16 02/07/2020 21:18:40 -81.29, 87.32 81.17 2.22 62
7 02/10/2020 16:03:24 81.29, -14.04 97.93 02/10/2020 16:03:31 81.30, -13.87 97.95 3.05 7
8 02/10/2020 16:54:04 -81.30, 153.83 82.03 02/10/2020 16:52:58 -81.29, 153.75 82.07 1.39 66
9 02/13/2020 11:37:47 81.29, 52.56 97.02 02/13/2020 11:37:50 81.29, 52.50 97.02 0.96 3




NCC Satellite Simultaneous Nadir Overpasses (SNOs) Prediction Service
